| time (UTC) | temp F | wind direction | speed knots | gust knots | rain 1hr in | rain 24hr in | rain mn in | humidity % | barometer mb |
| 20260906194532 | 85 | 188 | 4.3 | 10.4 | 0.00 | 0.21 | 0.21 | 61 | 1016.0 |
| 20260906193029 | 87 | 173 | 7.0 | 11.3 | 0.00 | 0.21 | 0.21 | 56 | 1016.0 |
| 20260906191530 | 86 | 197 | 4.3 | 9.6 | 0.00 | 0.21 | 0.21 | 58 | 1016.0 |
| 20260906190026 | 87 | 178 | 5.2 | 9.6 | 0.00 | 0.21 | 0.21 | 62 | 1016.0 |
| 20260906184520 | 88 | 151 | 4.3 | 7.8 | 0.00 | 0.21 | 0.21 | 61 | 1016.1 |
| 20260906183036 | 85 | 166 | 5.2 | 10.4 | 0.00 | 0.21 | 0.21 | 60 | 1016.2 |
| 20260906181531 | 85 | 185 | 5.2 | 10.4 | 0.00 | 0.21 | 0.21 | 62 | 1016.2 |
| 20260906180053 | 84 | 184 | 5.2 | 10.4 | 0.00 | 0.21 | 0.21 | 61 | 1016.2 |
| 20260906174529 | 84 | 185 | 4.3 | 8.7 | 0.00 | 0.21 | 0.21 | 61 | 1016.2 |
| 20260906173028 | 84 | 177 | 3.5 | 9.6 | 0.00 | 0.21 | 0.21 | 59 | 1016.3 |
| 20260906171525 | 83 | 140 | 4.3 | 8.7 | 0.00 | 0.21 | 0.21 | 58 | 1016.2 |
| 20260906170018 | 82 | 192 | 2.6 | 10.4 | 0.00 | 0.21 | 0.21 | 57 | 1016.2 |
| 20260906164518 | 82 | 262 | 2.6 | 6.1 | 0.00 | 0.21 | 0.21 | 58 | 1016.2 |
| 20260906163014 | 80 | 225 | 5.2 | 7.8 | 0.00 | 0.21 | 0.21 | 56 | 1016.0 |
| 20260906161531 | 78 | 209 | 4.3 | 6.1 | 0.00 | 0.21 | 0.21 | 59 | 1015.6 |
| 20260906160033 | 76 | 167 | 1.7 | 7.0 | 0.00 | 0.21 | 0.21 | 65 | 1015.2 |
| 20260906154528 | 74 | 192 | 5.2 | 11.3 | 0.00 | 0.21 | 0.21 | 64 | 1015.2 |
| 20260906153024 | 74 | 177 | 7.8 | 16.5 | 0.01 | 0.21 | 0.21 | 65 | 1014.9 |
| 20260906151523 | 72 | 178 | 8.7 | 14.8 | 0.01 | 0.21 | 0.21 | 70 | 1015.0 |
| 20260906150024 | 71 | 232 | 7.0 | 13.9 | 0.04 | 0.21 | 0.21 | 73 | 1016.0 |
| 20260906144516 | 71 | 174 | 9.6 | 21.7 | 0.10 | 0.21 | 0.21 | 75 | 1015.6 |
| 20260906143035 | 69 | 186 | 13.9 | 19.1 | 0.12 | 0.20 | 0.20 | 84 | 1016.1 |
| 20260906141510 | 69 | 226 | 7.8 | 11.3 | 0.14 | 0.20 | 0.20 | 86 | 1018.3 |
| 20260906140032 | 69 | 238 | 7.8 | 11.3 | 0.12 | 0.17 | 0.17 | 89 | 1019.1 |
| 20260906134531 | 69 | 251 | 6.1 | 12.2 | 0.07 | 0.11 | 0.11 | 90 | 1019.5 |
| 20260906133031 | 68 | 265 | 2.6 | 3.5 | 0.05 | 0.08 | 0.08 | 90 | 1019.0 |
| 20260906131531 | 69 | 282 | 3.5 | 9.6 | 0.04 | 0.06 | 0.06 | 89 | 1018.1 |
| 20260906130019 | 69 | 306 | 5.2 | 8.7 | 0.05 | 0.05 | 0.05 | 89 | 1018.1 |
| 20260906124512 | 68 | 319 | 3.5 | 9.6 | 0.04 | 0.04 | 0.04 | 90 | 1018.5 |
| 20260906123010 | 69 | 277 | 5.2 | 10.4 | 0.03 | 0.03 | 0.03 | 89 | 1018.5 |
| 20260906121532 | 69 | 308 | 6.1 | 10.4 | 0.02 | 0.02 | 0.02 | 89 | 1018.5 |
| 20260906120029 | 69 | 290 | 8.7 | 13.0 | 0.00 | 0.00 | 0.00 | 87 | 1018.4 |
| 20260906114527 | 70 | 329 | 7.8 | 11.3 | 0.00 | 0.00 | 0.00 | 84 | 1018.4 |
| 20260906113025 | 71 | 320 | 6.1 | 12.2 | 0.00 | 0.00 | 0.00 | 81 | 1018.6 |
| 20260906111519 | 72 | 306 | 6.1 | 12.2 | 0.00 | 0.00 | 0.00 | 79 | 1018.3 |
| 20260906110014 | 73 | 310 | 3.5 | 8.7 | 0.00 | 0.00 | 0.00 | 79 | 1017.4 |
| 20260906104535 | 74 | 305 | 3.5 | 10.4 | 0.00 | 0.00 | 0.00 | 78 | 1016.8 |
| 20260906103031 | 74 | 342 | 5.2 | 12.2 | 0.00 | 0.00 | 0.00 | 79 | 1016.6 |
| 20260906101532 | 73 | 329 | 4.3 | 8.7 | 0.00 | 0.00 | 0.00 | 83 | 1016.5 |
| 20260906100029 | 71 | 269 | 3.5 | 13.9 | 0.00 | 0.00 | 0.00 | 89 | 1016.3 |
| 20260906094535 | 70 | 123 | 0.0 | 1.7 | 0.00 | 0.00 | 0.00 | 89 | 1015.3 |
| 20260906093032 | 70 | 123 | 0.9 | 1.7 | 0.00 | 0.00 | 0.00 | 90 | 1015.2 |
| 20260906091519 | 70 | 123 | 0.0 | 1.7 | 0.00 | 0.00 | 0.00 | 90 | 1015.2 |
| 20260906090035 | 70 | 123 | 0.0 | 1.7 | 0.00 | 0.00 | 0.00 | 90 | 1015.0 |
| 20260906084544 | 70 | 123 | 0.0 | 0.9 | 0.00 | 0.00 | 0.00 | 90 | 1015.0 |
| 20260906083036 | 70 | 123 | 0.0 | 0.9 | 0.00 | 0.00 | 0.00 | 89 | 1014.9 |
| 20260906081530 | 70 | 123 | 0.0 | 0.9 | 0.00 | 0.00 | 0.00 | 89 | 1015.0 |
| 20260906080031 | 70 | 123 | 0.0 | 1.7 | 0.00 | 0.00 | 0.00 | 90 | 1015.1 |
| 20260906074524 | 70 | 123 | 0.0 | 1.7 | 0.00 | 0.00 | 0.00 | 89 | 1015.1 |
| 20260906073039 | 70 | 123 | 0.0 | 1.7 | 0.00 | 0.00 | 0.00 | 89 | 1015.2 |
| 20260906071545 | 71 | 123 | 0.0 | 1.7 | 0.00 | 0.00 | 0.00 | 88 | 1015.2 |
| 20260906070031 | 71 | 122 | 0.9 | 0.9 | 0.00 | 0.00 | 0.00 | 88 | 1015.0 |
| 20260906064532 | 71 | 122 | 0.0 | 1.7 | 0.00 | 0.00 | 0.00 | 88 | 1015.0 |
| 20260906063030 | 71 | 96 | 0.9 | 0.9 | 0.00 | 0.00 | 0.00 | 88 | 1015.0 |
| 20260906061505 | 71 | 96 | 0.0 | 0.9 | 0.00 | 0.00 | 0.00 | 89 | 1015.0 |
| 20260906060008 | 71 | 93 | 0.0 | 0.9 | 0.00 | 0.00 | 0.00 | 90 | 1015.0 |
| 20260906054507 | 71 | 93 | 0.0 | 0.9 | 0.00 | 0.00 | 0.00 | 90 | 1015.1 |
| 20260906053008 | 72 | 93 | 0.9 | 0.9 | 0.00 | 0.00 | 0.00 | 90 | 1015.3 |
| 20260906051508 | 72 | 93 | 0.0 | 0.9 | 0.00 | 0.00 | 0.00 | 90 | 1015.3 |
| 20260906050009 | 72 | 93 | 0.0 | 1.7 | 0.00 | 0.00 | 0.00 | 89 | 1015.4 |
| 20260906044508 | 74 | 93 | 0.0 | 0.9 | 0.00 | 0.00 | 0.00 | 87 | 1015.2 |
| 20260906043010 | 74 | 93 | 0.0 | 1.7 | 0.00 | 0.00 | 0.00 | 88 | 1015.3 |
| 20260906041512 | 74 | 84 | 0.9 | 0.9 | 0.00 | 0.00 | 0.00 | 88 | 1015.2 |
| 20260906040014 | 74 | 84 | 0.9 | 1.7 | 0.00 | 0.00 | 0.00 | 88 | 1015.1 |
| 20260906034526 | 74 | 84 | 0.0 | 0.9 | 0.00 | 0.00 | 0.00 | 88 | 1015.0 |
| 20260906033022 | 75 | 84 | 0.9 | 1.7 | 0.00 | 0.00 | 0.00 | 88 | 1015.0 |
| 20260906031511 | 75 | 118 | 0.0 | 1.7 | 0.00 | 0.00 | 0.00 | 87 | 1014.7 |
| 20260906030009 | 75 | 118 | 0.9 | 1.7 | 0.00 | 0.00 | 0.00 | 88 | 1014.6 |
| 20260906024511 | 75 | 117 | 0.0 | 1.7 | 0.00 | 0.00 | 0.00 | 88 | 1014.6 |
| 20260906023015 | 76 | 117 | 0.0 | 0.9 | 0.00 | 0.00 | 0.00 | 87 | 1014.4 |
| 20260906021514 | 76 | 117 | 0.0 | 1.7 | 0.00 | 0.00 | 0.00 | 86 | 1014.3 |
| 20260906020015 | 76 | 138 | 0.9 | 1.7 | 0.00 | 0.00 | 0.00 | 86 | 1014.0 |
| 20260906014525 | 78 | 68 | 0.0 | 1.7 | 0.00 | 0.00 | 0.00 | 84 | 1014.0 |
| 20260906013016 | 80 | 68 | 0.9 | 1.7 | 0.00 | 0.00 | 0.00 | 81 | 1013.7 |
| 20260906011531 | 79 | 95 | 0.0 | 1.7 | 0.00 | 0.00 | 0.00 | 82 | 1013.6 |
| 20260906010013 | 80 | 95 | 0.0 | 1.7 | 0.00 | 0.00 | 0.00 | 80 | 1013.3 |
| 20260906004529 | 82 | 93 | 0.9 | 1.7 | 0.00 | 0.00 | 0.00 | 78 | 1013.3 |
| 20260906003014 | 83 | 93 | 0.9 | 1.7 | 0.00 | 0.00 | 0.00 | 75 | 1013.3 |
| 20260906001517 | 85 | 115 | 0.9 | 2.6 | 0.00 | 0.00 | 0.00 | 71 | 1013.2 |
| 20260906000012 | 87 | 113 | 1.7 | 5.2 | 0.00 | 0.00 | 0.00 | 69 | 1013.0 |
| 20260905234511 | 87 | 109 | 2.6 | 6.1 | 0.00 | 0.00 | 0.00 | 67 | 1013.0 |
| 20260905233017 | 88 | 119 | 4.3 | 7.8 | 0.00 | 0.00 | 0.00 | 65 | 1013.0 |
| 20260905231518 | 88 | 119 | 3.5 | 7.0 | 0.00 | 0.00 | 0.00 | 65 | 1013.1 |
| 20260905230018 | 89 | 92 | 4.3 | 7.8 | 0.00 | 0.00 | 0.00 | 64 | 1013.0 |
| 20260905224525 | 89 | 107 | 4.3 | 7.8 | 0.00 | 0.00 | 0.00 | 66 | 1013.0 |
| 20260905223018 | 89 | 140 | 5.2 | 9.6 | 0.00 | 0.00 | 0.00 | 64 | 1013.3 |
| 20260905221519 | 89 | 105 | 4.3 | 9.6 | 0.00 | 0.00 | 0.00 | 66 | 1013.4 |
| 20260905220021 | 89 | 126 | 6.1 | 10.4 | 0.00 | 0.00 | 0.00 | 64 | 1013.5 |
| 20260905214517 | 89 | 138 | 7.0 | 12.2 | 0.00 | 0.00 | 0.00 | 63 | 1013.8 |
| 20260905213037 | 89 | 120 | 6.1 | 11.3 | 0.00 | 0.00 | 0.00 | 66 | 1014.0 |
| 20260905211519 | 89 | 72 | 6.1 | 12.2 | 0.00 | 0.00 | 0.00 | 66 | 1014.3 |
| 20260905210022 | 88 | 77 | 6.1 | 12.2 | 0.00 | 0.00 | 0.00 | 67 | 1014.5 |
| 20260905204520 | 88 | 82 | 7.8 | 12.2 | 0.00 | 0.00 | 0.00 | 70 | 1014.9 |
| 20260905203023 | 88 | 91 | 4.3 | 12.2 | 0.00 | 0.00 | 0.00 | 70 | 1015.1 |
| 20260905201521 | 87 | 101 | 8.7 | 12.2 | 0.00 | 0.00 | 0.00 | 68 | 1015.2 |
| 20260905200024 | 87 | 105 | 6.1 | 10.4 | 0.00 | 0.00 | 0.00 | 71 | 1015.4 |